Location: Central Falls
(41.8900°N, 71.3929°W)
Time: 21:15:19
(UTC+00:00)

Courier 1B Rocket - Pass Details

Date: 10 December 2023
Orbit: 920 x 1202 km, 28.2° (Epoch: 04 March)

Event Time Altitude Azimuth Distance (km) Brightness Sun altitude
Rises 16:22:20 0° 244° (WSW) 3,858 8.4 25.1°
Reaches altitude 10° 16:25:38 10° 232° (SW) 2,852 8.0 25.1°
Maximum altitude 16:31:04 25° 180° (S) 1,901 10.8 25.2°
Drops below altitude 10° 16:36:13 10° 128° (SE) 2,699 8.0 25.2°
Sets 16:39:16 0° 115° (ESE) 3,610 8.3 25.2°
